Location: The Saddle
(36.8333°N, 80.3417°W)
Time: 21:42:02
(UTC-05:00)

Vanguard 2 - All Passes

Search period start: 22 January 2022 00:00
Search period end: 01 February 2022 00:00
Orbit: 553 x 2936 km, 32.9° (Epoch: 22 January)

Date Brightness Start Highest point End Pass type
(mag) Time Alt. Az. Time Alt. Az. Time Alt. Az.
22 Jan - 01:18:35 10° W 01:33:52 70° SSW 01:51:32 10° ESE visible
22 Jan - 03:30:10 10° W 03:45:55 44° SSW 04:00:53 10° SSE visible
22 Jan - 05:47:08 10° W 05:55:55 16° SW 06:03:55 10° SSW visible
22 Jan - 19:12:35 10° S 19:19:06 26° SE 19:28:28 10° E visible
22 Jan - 21:18:07 10° WSW 21:27:47 61° SSE 21:43:12 10° E visible
22 Jan - 23:26:27 10° W 23:39:08 77° S 23:56:58 10° E visible
23 Jan - 01:36:22 10° W 01:51:38 64° SSW 02:09:02 10° SE visible
23 Jan - 03:48:27 10° W 04:03:16 36° SW 04:17:25 10° SSE visible
23 Jan - 19:29:07 10° SSW 19:36:10 34° SE 19:46:57 10° E visible
23 Jan - 21:35:31 10° WSW 21:45:23 68° SSE 22:01:12 10° E visible
23 Jan - 23:44:07 10° W 23:56:59 75° S 00:14:49 10° ESE visible
24 Jan - 01:54:13 10° W 02:09:19 56° SSW 02:26:19 10° SE visible
24 Jan - 04:07:06 10° W 04:20:33 28° SW 04:33:29 10° S visible
24 Jan - 19:46:00 10° SW 19:53:22 43° SSE 20:05:11 10° E visible
24 Jan - 21:53:01 10° WSW 22:03:05 73° S 22:19:12 10° E visible
25 Jan - 00:01:49 10° W 00:14:49 72° S 00:32:36 10° ESE visible
25 Jan - 02:12:08 10° W 02:26:56 49° SSW 02:43:23 10° SE visible
25 Jan - 04:26:21 10° W 04:37:47 21° SW 04:48:52 10° S visible
25 Jan - 17:59:08 10° S 18:03:06 16° SE 18:08:08 10° E visible
25 Jan - 20:03:07 10° SW 20:10:42 52° SSE 20:23:15 10° E visible
25 Jan - 22:10:34 10° W 22:20:50 75° S 22:37:10 10° E visible
26 Jan - 00:19:31 10° W 00:32:37 66° SSW 00:50:14 10° ESE visible
26 Jan - 02:30:13 10° W 02:44:27 41° SSW 03:00:07 10° SSE visible
26 Jan - 04:46:54 10° WSW 04:55:01 15° SW 05:02:58 10° SSW visible
26 Jan - 18:15:04 10° S 18:20:05 23° SE 18:27:09 10° E visible
26 Jan - 20:20:23 10° WSW 20:28:10 60° SSE 20:41:16 10° E visible
26 Jan - 22:28:10 10° W 22:38:38 75° S 22:55:06 10° E visible
27 Jan - 00:37:16 10° W 00:50:22 60° SSW 01:07:42 10° SE visible
27 Jan - 02:48:32 10° W 03:01:55 33° SW 03:16:28 10° SSE visible
27 Jan - 18:31:38 10° SSW 18:37:11 31° SE 18:45:34 10° E visible
27 Jan - 20:37:48 10° WSW 20:45:45 67° SSE 20:59:15 10° E visible
27 Jan - 22:45:48 10° W 22:56:25 72° S 23:12:58 10° ESE visible
28 Jan - 00:55:04 10° W 01:08:03 52° SSW 01:24:54 10° SE visible
28 Jan - 03:07:17 10° W 03:19:20 26° SW 03:32:17 10° S visible
28 Jan - 18:48:33 10° SW 18:54:24 40° SSE 19:03:43 10° E visible
28 Jan - 20:55:17 10° WSW 21:03:24 71° S 21:17:13 10° E visible
28 Jan - 23:03:26 10° W 23:14:11 68° SSW 23:30:43 10° ESE visible
29 Jan - 01:12:59 10° W 01:25:41 44° SSW 01:41:51 10° SE visible
29 Jan - 03:26:48 10° WSW 03:36:44 19° SW 03:47:16 10° S visible
29 Jan - 17:01:59 10° SSE 17:04:29 13° SE 17:07:26 10° ESE daylight
29 Jan - 19:05:41 10° SW 19:11:44 49° SSE 19:21:45 10° E visible
29 Jan - 21:12:49 10° W 21:21:06 73° S 21:35:09 10° E visible
29 Jan - 23:21:06 10° W 23:31:56 61° SSW 23:48:18 10° ESE visible
30 Jan - 01:31:06 10° W 01:43:17 36° SSW 01:58:25 10° SSE visible
30 Jan - 03:48:13 10° WSW 03:54:10 13° SW 04:00:19 10° SSW visible
30 Jan - 17:17:45 10° S 17:21:32 20° SE 17:26:32 10° E daylight
30 Jan - 19:23:00 10° WSW 19:29:13 58° SSE 19:39:42 10° E visible
30 Jan - 21:30:23 10° W 21:38:49 71° S 21:53:03 10° ESE visible
30 Jan - 23:38:49 10° W 23:49:39 54° SSW 00:05:41 10° SE visible
31 Jan - 01:49:32 10° W 02:00:51 29° SW 02:14:32 10° SSE visible
31 Jan - 17:34:19 10° SSW 17:38:41 27° SSE 17:44:54 10° E daylight
31 Jan - 19:40:24 10° WSW 19:46:46 64° SSE 19:57:37 10° E visible
31 Jan - 21:47:58 10° W 21:56:32 67° S 22:10:52 10° ESE visible
